Location: ?????
(31.8092°N, 35.2590°E)
Time: 03:00:01
(UTC+00:00)

Lacrosse 5 - Pass Details

Date: 31 October 2021
Orbit: 714 x 724 km, 57.0° (Epoch: 28 August)

Event Time Altitude Azimuth Distance (km) Brightness Sun altitude
Rises 16:15:32 0° 238° (WSW) 3,124 6.3 -18.6°
Reaches altitude 10° 16:18:05 10° 247° (WSW) 2,207 5.5 -19.1°
Maximum altitude 16:22:46 36° 314° (NW) 1,130 3.2 -20.1°
Enters shadow 16:26:47 13° 17° (NNE) 1,985 3.9 -21.0°
